Regional Weather Roundup
Issued by NWS Charleston, SC

Home | Current Version | Previous Version | Text Only | Print | Product List | Glossary On
Versions: 1 2 3 4 5 6 7 8 9 10 11 12 13 14 15 16 17 18 19 20 21 22 23 24 25 26 27 28 29 30 31 32 33 34 35 36 37 38 39 40 41 42 43 44 45 46 47 48 49 50
000
ASUS42 KCHS 290727
RWRCHS

REGIONAL WEATHER ROUNDUP
NATIONAL WEATHER SERVICE CHARLESTON SC
300 AM EDT THU JUN 29 2017

NOTE: "FAIR" INDICATES FEW OR NO CLOUDS BELOW 12,000 FEET WITH NO
SIGNIFICANT WEATHER AND/OR OBSTRUCTIONS TO VISIBILITY.

NOT ALL STATIONS ARE QUALITY CONTROLLED. USE DATA WITH CAUTION...
ESPECIALLY DEWPOINT OBSERVATIONS.

SCZ027-030-031-034>040-042>050-290800-
...SOUTHEAST SOUTH CAROLINA...

CITY           SKY/WX    TMP DP  RH WIND       PRES   REMARKS
N CHARLESTON   CLEAR     70  65  84 CALM      30.14F
WATERFRONT PRK   N/A     80  70  71 E12       30.12F
JOHNS ISLAND   FAIR      79  68  69 E6        30.14S
PINOPOLIS        N/A     72  64  78 CALM      30.07F
MONCKS CORNER  FAIR      64  63  94 CALM      30.15S
SUMMERVILLE    FAIR      64  64 100 CALM      30.16S
BEAUFORT MCAS  PTCLDY    80  72  76 E5        30.13F
BEAUFORT ARPT  FAIR      77  70  78 E5        30.12F
HILTON HEAD IS CLOUDY    81  72  74 CALM      30.13S
WALTERBORO     SUNNY     64  63  94 CALM      30.15S
ALLENDALE      FAIR      70  64  83 CALM      30.13F

...SOUTHERN MIDLANDS AND PEE DEE...

CITY           SKY/WX    TMP DP  RH WIND       PRES   REMARKS
GEORGETOWN     FAIR      63  63 100 CALM      30.17S
KINGSTREE      FAIR      63  59  88 CALM      30.17S
ORANGEBURG     CLEAR     65  61  87 NE3       30.16F
BARNWELL       FAIR      68  66  94 CALM      30.15F
AIKEN          FAIR      64  61  88 CALM      30.20S
MANNING        FAIR      63  63 100 N5        30.16F
COLUMBIA       CLEAR     72  60  66 E5        30.16S
SUMTER         CLEAR     64  59  85 CALM      30.15S
FLORENCE       CLEAR     66  62  87 CALM      30.18S
MYRTLE BEACH   PTCLDY    68  61  78 CALM      30.18F
N MYRTLE BEACH CLEAR     67  61  81 CALM      30.17S

$$

GAZ063-065-086>088-099>101-113>116-118-119-134>141-150-290800-
...SOUTHEAST GEORGIA...

CITY           SKY/WX    TMP DP  RH WIND       PRES   REMARKS
SAVANNAH ARPT  MOCLDY    78  70  76 E7        30.13F
HUNTER AAF     MOCLDY    79  72  80 E3        30.10F
FORT STEWART   PTCLDY    72  70  92 CALM      30.10F
STATESBORO     PTCLDY    74  73  96 CALM      30.13F
SYLVANIA       CLOUDY    71  68  92 CALM      30.14F
CLAXTON        FAIR      70  69  96 CALM      30.12F

...CSRA...CENTRAL AND FAR SOUTHEAST GEORGIA...

CITY           SKY/WX    TMP DP  RH WIND       PRES   REMARKS
THOMSON        CLOUDY    69  65  86 S3        30.20F
AUGUSTA-BUSH   CLEAR     70  66  87 CALM      30.15S
AUGUSTA-DANIEL CLEAR     73  63  70 SE3       30.17S
SWAINSBORO     FAIR      72  70  94 E3        30.14F
VIDALIA        PTCLDY    73  72  94 E5        30.12F
EASTMAN        FAIR      72  69  88 CALM      30.15S
HAZLEHURST     FAIR      74  73  96 E3        30.10F
ALMA           CLEAR     74  70  87 E3        30.11F
WAYCROSS       PTCLDY    75  75 100 E3        30.10F
JESUP          FAIR      72  70  94 CALM      30.11F
BAXLEY         FAIR      72  72 100 E3        30.10F
BRUNSWICK      CLEAR     73  73 100 E5        30.11F
SAINT SIMONS   CLEAR     79  73  82 E9        30.10F

$$

SCZ027-028-034-036>038-045-046-048>050-GAZ119-141-290800-
...LAKE AND SUPPLEMENTAL COASTAL OBSERVATIONS...

STATION/POSITION TIME  TEMP    WIND        PRES    WAVE   SWELL
                       AIR SEA DIR/SP/G            HT/PER HT/PER/DIR
                 (UTC) (F)     (DEG/KT/KT) (MB)    (FT/S) (FT/S/D)
WINYAH BAY       0630   78     120/  6     1021.0S
LAKE MURRAY      0720   75     150/  7/ 10 1020.3
ACE BASIN NERRS  0645   77      80/  2     1021.0S
FORT PULASKI     0700   80 83  130/  7/  9 1020.3
SAPELO ISLAND    0700   78        CALM     1019.0

$$

ANZ835-935-AMZ111-154-330-350-352-354-370-450-454-472-290800-
...C-MAN AND BUOY OBSERVATIONS...

STATION/POSITION TIME  TEMP    WIND        PRES    WAVE   SWELL
                       AIR SEA DIR/SP/G            HT/PER HT/PER/DIR
                 (UTC) (F)     (DEG/KT/KT) (MB)    (FT/S) (FT/S/D)
BUOY 41004       0710   81 81  120/ 10/ 14 1019.6
BUOY 41008       0650   80 82  110/ 12/ 16 1019.0F   4/ 6   2/ 80/ 6
FOLLY BEACH CMAN 0700   80     100/ 11/ 12 1021.1F
CAPERS NEARSHORE 0708   86 82  110/ 12/ 16 1020.2F
FRIPP NEARSHORE  0708   81 83  110/ 12/ 16 1019.7S


STATION/POSITION TIME  TEMP    WIND        PRES    WAVE   SWELL
                       AIR SEA DIR/SP/G            HT/PER HT/PER/DIR
                 (UTC) (F)     (DEG/KT/KT) (MB)    (FT/S) (FT/S/D)
5E ST. MARYS GA  0700      81                N/A     3/ 6
FRYING PAN BUOY  0710   78 79   30/  8/  8 1020.9
BUOY 41025       0650   79 83  120/  2/  4 1022.2F   2/ 7   2/ 70/ 7
CAPE LOOKOUT NC  0700   75     360/  7/  7 1021.6F
BUOY 41002       0650   79 80   80/ 10/ 14 1020.2F   3/ 5   2/ 50/ 5
BUOY 41010       0710   81 83  120/  8/ 10 1018.0
ST AUGUSTINE FL  0700   79 80  130/  2/  3 1018.8F


$$




USA.gov is the U.S. government's official web portal to all federal, state and local government web resources and services.